Location: Tel Aviv
(32.0670°N, 34.7670°E)
Time: 12:07:24
(UTC+03:00)

Transit 2A - Pass Details

Date: 26 January 2022
Orbit: 598 x 960 km, 66.7° (Epoch: 20 May)

Event Time Altitude Azimuth Distance (km) Brightness Sun altitude
Rises 19:45:04 0° 338° (NNW) 3,538 9.7 -33.0°
Reaches altitude 10° 19:47:45 10° 343° (NNW) 2,549 8.8 -33.6°
Enters shadow 19:48:39 15° 345° (NNW) 2,219 8.5 -33.8°
Maximum altitude 19:53:33 57° 61° (ENE) 965 - -34.8°
Drops below altitude 10° 19:58:46 10° 140° (SE) 2,299 - -35.9°
Sets 20:01:04 0° 145° (SE) 3,164 - -36.4°
